Saturna Island,

1:27 PM PST on November 23, 2017 (GMT -0800)
Saturna Island

Weather History for CWEZ - February, 2013

Change the Weather History Date:

Wednesday, February 27, 2013

  Actual Average Record
Temperature  
Mean Temperature 43 °F -  
Max Temperature 46 °F - - ()
Min Temperature 40 °F - - ()
Degree Days  
Heating Degree Days 22    
Moisture  
Dew Point 38 °F    
Average Humidity 81    
Maximum Humidity 89    
Minimum Humidity 71    
Precipitation  
Precipitation 0.02 in - - ()
Sea Level Pressure  
Sea Level Pressure 30.26 in    
Wind  
Wind Speed 9 mph ()    
Max Wind Speed 16 mph    
Max Gust Speed -    
T = Trace of Precipitation, MM = Missing Value Source: Averaged Metar Reports

Daily Weather History Graph

Daily Weather History Graph

Search for Another Location

Airport or City:

Trip Planner

Search our weather history database for the weather conditions in past years. The results will help you decide how hot, cold, wet, or windy it might be!

Date:

Astronomy

Feb. 27, 2013 Rise Set
Actual Time 6:57 AM PST 5:53 PM PST
Civil Twilight 6:25 AM PST 6:24 PM PST
Nautical Twilight 5:49 AM PST 7:01 PM PST
Astronomical Twilight 5:12 AM PST 7:38 PM PST
Moon 8:38 PM PST (2/27) 7:21 AM PST (2/27)
Length of Visible Light 11h 59m
Length of Day
10h 56m
Waning Gibbous, 96% of the Moon is Illuminated
Feb 27
Waning Gibbous
Mar 4
Last Quarter
Mar 11
New
Mar 19
First Quarter
Mar 27
Full

Hourly Weather History & Observations

Time (PST) Temp. Windchill Dew Point Humidity Pressure Visibility Wind Dir Wind Speed Gust Speed Precip Events Conditions
1:00 AM 41.2 °F 33.7 °F 37.4 °F 86% 30.17 in - SW 13.8 mph - N/A   Unknown
2:00 AM 40.8 °F 32.6 °F 37.9 °F 89% 30.17 in - SW 16.1 mph - N/A   Unknown
3:00 AM 41.2 °F 33.4 °F 37.8 °F 88% 30.19 in - SW 15.0 mph - N/A   Unknown
4:00 AM 41 °F - 38 °F 84% 30.21 in - SW 11.5 mph - -  
4:00 AM 41.4 °F 34.7 °F 37.8 °F 87% 30.21 in - SW 11.5 mph - N/A   Unknown
5:00 AM 41.9 °F 35.0 °F 37.6 °F 85% 30.24 in - SSW 12.7 mph - N/A   Unknown
6:00 AM 41.9 °F 34.6 °F 37.6 °F 85% 30.26 in - SW 13.8 mph - N/A   Unknown
7:00 AM 42.1 °F 34.9 °F 37.9 °F 85% 30.27 in - South 13.8 mph - N/A   Unknown
8:00 AM 42.4 °F 36.1 °F 38.7 °F 86% 30.27 in - SW 11.5 mph - N/A   Unknown
9:00 AM 43.7 °F 37.3 °F 38.7 °F 82% 30.27 in - SSW 12.7 mph - N/A   Unknown
10:00 AM 45 °F - 39 °F 71% 30.28 in - South 8.1 mph - -  
10:00 AM 45.0 °F 40.6 °F 38.7 °F 79% 30.28 in - South 8.1 mph - N/A   Unknown
11:00 AM 45.5 °F 42.5 °F 38.7 °F 77% 30.30 in - SW 5.8 mph - N/A   Unknown
12:00 PM 46.0 °F 44.8 °F 37.6 °F 72% 30.30 in - WSW 3.5 mph - N/A   Unknown
1:00 PM 46.6 °F - 39.4 °F 76% 30.28 in - East 4.6 mph - N/A   Unknown
2:00 PM 45.5 °F - 37.9 °F 75% 30.28 in - ESE 1.2 mph - N/A   Unknown
3:00 PM 45.0 °F - 38.1 °F 77% 30.28 in - SW 1.2 mph - N/A   Unknown
4:00 PM 44.8 °F 43.3 °F 38.5 °F 79% 30.26 in - East 3.5 mph - N/A   Unknown
5:00 PM 44.4 °F - 38.8 °F 81% 30.28 in - NNE 1.2 mph - N/A   Unknown
6:00 PM 43.9 °F 40.5 °F 38.8 °F 82% 30.27 in - NE 5.8 mph - N/A   Unknown
7:00 PM 43.2 °F - 35.8 °F 75% 30.28 in - NW 2.3 mph - N/A   Unknown
8:00 PM 42.3 °F 40.5 °F 36.1 °F 79% 30.27 in - North 3.5 mph - N/A   Unknown
9:00 PM 42.6 °F 35.9 °F 38.3 °F 85% 30.27 in - East 12.7 mph - N/A   Unknown
10:00 PM 42 °F - 38 °F 81% 30.28 in - East 11.5 mph - -  
10:00 PM 42.4 °F 36.1 °F 38.1 °F 85% 30.28 in - East 11.5 mph - N/A   Unknown
11:00 PM 42.1 °F 35.7 °F 38.3 °F 86% 30.27 in - East 11.5 mph - N/A   Unknown